Wind_Speed
33 28 23 18 17 15 15 19 18 16 12 9 7 7 6 3 1 5 9 10 8 5 5 8 7 8 8 7 7 7 6 6 6 7 7 7 7 8 9 9 10 12 13
37 34 31 27 26 21 18 19 21 21 20 15 13 10 10 9 8 2 5 7 7 6 4 4 6 7 6 5 4 4 4 4 3 4 5 5 6 7 9 10 13 13 14
43 39 36 34 32 28 22 22 23 24 24 22 18 16 14 14 12 11 9 9 6 5 4 3 3 3 5 6 5 4 3 4 5 5 6 7 8 9 11 12 12 12 14
45 42 40 38 36 34 28 25 26 26 28 27 23 22 20 18 16 15 15 13 11 8 6 6 6 5 3 4 5 4 3 4 5 6 7 8 9 9 9 10 12 13 8
48 50 44 41 40 37 33 31 29 29 30 29 27 26 23 22 21 18 16 16 15 12 10 9 9 9 8 7 5 4 4 5 6 6 7 8 7 6 7 8 8 7 6
40 43 47 47 45 43 39 33 33 31 31 33 31 28 27 24 23 21 18 18 16 17 16 13 12 12 11 10 8 8 8 8 9 9 9 7 5 4 2 3 4 7 8
58 54 50 51 51 49 47 40 36 32 31 34 33 33 31 29 26 24 22 21 19 18 19 17 15 16 14 13 11 10 12 10 11 11 11 9 7 2 4 3 6 13 14
57 54 50 50 52 52 50 47 39 37 33 32 32 34 33 33 30 27 24 23 25 23 23 22 21 19 17 15 15 13 14 13 14 11 9 10 8 6 5 8 13 14 14
63 60 57 53 52 53 53 53 48 44 39 35 33 31 33 32 30 27 24 24 26 27 25 26 24 22 19 17 18 16 16 12 16 14 9 10 8 7 6 8 13 18 17
69 66 63 61 57 55 53 56 55 51 46 42 38 35 32 32 29 28 27 27 29 32 28 27 27 26 20 20 22 19 20 12 19 12 7 11 10 9 7 11 17 20 20
76 72 69 66 65 60 57 57 57 60 55 49 45 41 39 36 31 29 28 28 32 34 30 29 27 24 21 22 23 25 21 16 20 17 8 11 14 13 9 12 14 18 20
81 79 76 73 71 69 66 63 61 60 60 58 54 48 45 42 37 32 31 31 31 29 24 25 26 26 26 26 26 27 20 17 19 13 12 8 13 16 15 13 16 18 20
86 83 82 80 76 75 73 71 68 65 64 64 62 58 53 48 46 40 35 33 31 29 24 20 23 24 25 27 28 28 25 20 18 17 16 11 11 14 17 15 16 16 18
92 89 87 85 83 81 79 78 75 73 70 69 68 66 61 57 53 48 45 41 38 37 32 25 22 26 28 30 29 23 18 17 20 21 19 16 15 16 14 12 17 20 22
101 98 95 93 89 86 85 84 82 79 78 74 72 69 68 65 62 54 51 49 46 41 43 37 32 29 32 32 30 27 21 19 19 23 23 21 19 17 18 17 18 19 20
110 107 103 99 97 95 92 89 87 86 84 83 78 74 74 72 70 64 59 55 51 46 46 43 42 39 35 35 32 28 23 21 24 24 27 27 25 22 20 20 21 24 26
118 117 113 110 105 102 100 96 93 92 91 88 86 82 79 78 77 72 68 63 59 54 51 54 51 48 46 43 39 37 34 29 26 27 30 31 28 26 24 22 21 25 31
128 126 123 120 115 111 107 103 100 98 96 95 93 89 87 83 81 81 77 75 70 64 62 57 53 48 43 38 46 46 44 40 37 35 34 35 32 29 27 26 26 27 31
135 132 131 129 124 121 115 110 108 105 103 100 99 96 94 91 88 86 84 80 78 72 70 61 60 56 50 51 57 51 49 47 46 43 43 43 41 37 35 34 33 33 36
136 135 135 134 132 130 125 121 116 112 110 107 105 102 101 96 96 93 89 87 84 81 79 73 70 65 59 53 51 51 52 52 50 50 50 52 48 46 45 45 44 40 40
125 132 135 134 133 135 132 129 127 120 117 114 112 110 106 103 103 100 95 91 91 87 87 82 78 71 66 59 55 52 52 52 51 51 54 54 54 52 52 54 55 52 51
112 115 121 127 133 134 135 136 131 128 127 122 119 116 111 110 108 106 102 98 95 93 92 89 87 77 71 65 63 63 59 56 59 59 57 58 58 57 57 56 56 56 57
101 105 109 113 119 127 133 136 135 132 131 129 125 123 120 116 114 112 109 105 103 99 98 96 92 87 86 81 71 68 67 64 64 63 58 56 65 64 60 60 59 59 56
89 93 99 104 107 112 119 129 135 134 132 133 133 131 128 123 120 117 116 111 109 107 103 102 99 94 91 91 88 78 75 76 74 73 72 70 66 67 70 67 64 58 60
81 85 89 92 97 103 109 113 120 129 135 136 136 136 135 130 125 122 120 117 115 114 110 106 105 103 98 95 92 90 86 83 82 81 83 84 80 79 79 73 70 70 67
71 76 81 84 87 92 98 104 111 117 125 132 134 137 137 134 131 128 125 123 120 119 117 112 109 108 106 103 99 98 95 93 91 90 88 85 82 83 85 81 78 76 76
Wind_Direction
256 256 253 256 255 251 245 238 241 245 243 207 209 202 192 192 47 40 33 36 23 14 30 52 66 72 68 62 57 60 66 68 68 64 58 47 35 33 30 27 22 15 18
256 254 254 249 253 256 247 233 234 240 248 238 224 221 228 238 264 259 16 17 18 14 353 25 33 30 39 49 44 46 41 36 26 15 8 5 3 356 3 359 2 0 6
257 255 253 253 253 257 256 247 231 234 243 245 234 229 230 238 247 264 293 318 341 348 325 277 291 345 1 6 357 344 358 1 346 348 339 346 341 341 345 348 346 348 351
253 255 251 251 252 255 255 255 245 228 235 241 241 233 230 234 240 251 265 286 299 305 307 266 248 258 270 301 333 323 321 316 319 316 317 323 330 341 347 346 356 1 24
247 247 250 250 250 252 255 257 253 241 232 234 240 243 244 240 241 246 256 269 279 272 288 277 252 243 248 262 275 274 279 282 282 284 287 298 317 351 352 19 32 42 107
230 241 245 244 243 244 247 250 257 253 244 236 238 243 248 253 260 261 258 264 277 271 275 267 252 246 246 255 269 278 276 275 279 274 270 290 308 342 2 20 74 139 145
244 249 247 243 242 242 242 240 244 249 252 249 241 239 242 247 252 259 263 268 271 272 268 260 249 248 248 248 259 267 273 280 288 281 285 299 296 271 207 194 172 163 169
244 246 245 242 242 240 240 241 239 242 247 249 245 244 244 246 246 248 251 259 265 268 266 253 250 254 260 259 264 275 274 278 285 289 282 288 282 267 228 200 192 190 194
243 243 244 244 240 239 241 242 238 236 240 247 248 243 241 245 245 245 238 243 254 256 256 247 249 253 263 262 262 278 280 279 277 287 281 274 273 272 244 220 210 200 206
244 244 243 243 242 240 237 241 242 238 236 238 245 247 245 242 240 241 235 233 243 248 244 242 243 246 250 257 258 260 263 269 272 285 261 266 276 266 254 235 226 218 223
245 244 243 243 243 240 239 237 238 240 237 237 241 244 243 243 242 242 239 236 239 246 248 245 243 243 241 244 251 257 259 244 262 273 276 252 267 276 260 245 247 242 242
243 244 243 241 242 242 239 238 236 236 239 236 236 237 240 241 240 238 237 237 245 248 248 243 238 239 236 237 246 255 254 236 248 257 265 238 248 260 261 255 244 249 254
242 242 242 241 240 240 240 239 238 236 235 236 236 237 238 237 237 237 236 236 241 252 253 244 246 241 238 236 243 255 257 239 243 251 260 241 239 256 261 261 264 258 252
242 242 242 241 240 238 238 239 238 238 237 235 235 235 235 238 236 232 233 233 230 232 237 245 240 244 247 246 245 256 266 258 245 248 255 264 265 269 275 263 264 266 270
242 242 241 241 241 240 238 237 237 236 238 238 236 233 233 234 235 234 230 228 229 235 238 239 239 238 246 251 256 260 268 267 264 258 261 267 271 272 278 282 278 277 275
243 242 241 241 240 240 239 237 236 236 235 237 237 235 233 233 233 231 231 228 227 231 230 242 246 249 246 250 253 257 264 264 266 264 265 270 274 276 279 282 283 281 277
243 243 242 241 239 239 239 238 237 236 235 234 235 236 236 234 233 232 230 229 226 226 231 235 235 241 245 253 255 256 261 261 255 262 269 270 271 273 275 276 280 282 281
243 243 242 241 240 239 238 237 237 237 236 235 234 234 234 235 233 233 232 229 228 228 230 230 233 236 238 252 256 255 256 258 258 259 263 269 271 268 270 268 268 268 271
244 243 243 243 241 240 239 237 236 236 236 235 234 232 233 233 235 233 231 232 231 228 229 229 233 236 234 239 244 247 252 257 255 258 261 263 265 270 269 265 268 266 265
244 244 242 242 243 241 240 239 237 235 235 235 235 234 232 232 234 234 233 231 232 232 232 231 233 235 239 240 242 247 249 250 251 257 259 264 266 268 272 271 268 268 267
243 242 242 242 240 241 241 238 238 236 235 234 235 234 233 231 233 233 232 233 231 231 232 232 232 234 238 240 240 243 246 251 251 253 258 260 262 265 270 273 276 275 275
242 241 240 240 240 238 238 240 238 236 236 234 234 234 232 232 232 232 233 232 233 230 231 231 233 232 233 232 236 236 244 253 252 254 258 260 262 263 266 267 269 269 271
243 241 240 239 238 238 237 236 236 236 235 235 234 234 233 231 230 232 232 232 233 232 230 231 231 232 232 233 232 235 238 240 246 248 246 249 256 257 260 259 260 262 265
242 241 240 239 238 238 237 237 235 235 234 232 232 232 233 231 230 229 231 231 232 233 232 230 231 230 232 233 237 236 236 238 239 243 244 249 249 255 259 258 263 263 265
239 239 240 239 237 237 238 237 236 234 233 232 231 230 230 230 229 230 229 230 230 232 232 232 231 232 231 233 234 237 238 239 242 244 248 248 250 255 257 260 262 262 265
238 237 238 239 238 238 238 237 236 235 234 232 231 230 229 229 230 229 230 229 228 231 233 232 233 233 234 233 234 236 238 240 242 245 247 248 252 254 256 258 260 264 263
Height
11000 11003 11005 11007 11007 11007 11008 11010 11013 11015 11017 11018 11018 11019 11018 11018 11017 11017 11016 11015 11016 11015 11014 11013 11011 11010 11009 11008 11007 11007 11006 11006 11004 11003 11001 11000 11000 11000 10999 10998 10996 10994 10994
10993 10996 10998 11001 11002 11004 11005 11006 11008 11011 11013 11015 11015 11015 11017 11018 11017 11016 11016 11016 11014 11015 11015 11014 11014 11013 11012 11010 11009 11008 11007 11006 11005 11004 11002 11001 11001 11000 11000 10998 10997 10994 10993
10985 10988 10992 10994 10997 10999 11001 11002 11003 11005 11008 11010 11010 11011 11012 11014 11015 11015 11015 11014 11014 11013 11014 11014 11013 11013 11012 11012 11010 11009 11007 11006 11005 11003 11002 11001 11001 11000 10999 10999 10997 10996 10994
10975 10978 10983 10987 10991 10994 10996 10997 10998 10999 11001 11004 11006 11006 11007 11008 11010 11012 11012 11013 11013 11013 11012 11011 11012 11012 11011 11010 11009 11008 11007 11006 11005 11004 11002 11001 11001 11000 10999 10998 10998 10996 10996
10964 10969 10975 10981 10983 10987 10990 10991 10993 10994 10995 10997 11000 11001 11002 11003 11004 11006 11008 11009 11010 11010 11010 11010 11009 11009 11009 11008 11008 11007 11005 11005 11004 11003 11002 11001 10999 11000 10999 10998 10998 10997 10996
10952 10958 10964 10969 10972 10976 10980 10985 10987 10989 10990 10991 10993 10995 10996 10998 11000 11002 11003 11005 11006 11006 11006 11006 11007 11006 11006 11006 11006 11005 11004 11004 11003 11002 11001 11000 10999 10999 10998 10997 10997 10997 10998
10941 10947 10952 10956 10961 10966 10970 10974 10978 10982 10984 10986 10987 10989 10991 10992 10995 10997 11000 11001 11002 11003 11003 11003 11003 11003 11003 11003 11003 11003 11002 11002 11001 11001 11000 11000 10999 10998 10996 10997 10997 10997 10998
10927 10933 10939 10944 10950 10955 10959 10964 10970 10974 10976 10979 10980 10982 10984 10986 10988 10990 10994 10996 10998 10999 10999 10999 10999 10999 11000 11001 11001 11001 11000 11000 11000 11000 11000 10999 10998 10996 10996 10996 10996 10996 10997
10913 10919 10925 10931 10936 10942 10947 10952 10957 10962 10967 10970 10973 10975 10976 10978 10982 10985 10988 10990 10991 10992 10993 10995 10995 10996 10997 10997 10997 10998 10998 10998 10997 10997 10998 10998 10997 10996 10995 10995 10995 10996 10996
10896 10903 10910 10915 10921 10927 10933 10938 10945 10951 10955 10959 10963 10967 10969 10971 10974 10977 10981 10984 10985 10984 10987 10988 10989 10990 10992 10993 10993 10993 10993 10996 10993 10993 10995 10997 10996 10995 10995 10995 10995 10995 10994
10877 10886 10893 10900 10905 10912 10917 10923 10929 10936 10942 10948 10953 10958 10961 10964 10967 10970 10974 10977 10977 10976 10981 10983 10984 10985 10986 10988 10988 10988 10988 10992 10990 10989 10991 10993 10994 10994 10994 10993 10993 10993 10992
10858 10865 10873 10882 10888 10895 10902 10907 10914 10921 10927 10933 10939 10945 10949 10954 10959 10962 10966 10969 10970 10970 10973 10976 10977 10979 10980 10982 10983 10982 10984 10987 10986 10986 10987 10988 10989 10989 10990 10990 10989 10990 10988
10836 10844 10851 10859 10869 10876 10884 10891 10898 10904 10911 10919 10925 10932 10937 10942 10947 10953 10958 10961 10964 10967 10968 10971 10974 10974 10974 10975 10976 10976 10977 10981 10982 10983 10983 10984 10984 10984 10984 10985 10985 10985 10985
10812 10821 10829 10838 10846 10855 10863 10870 10879 10888 10894 10901 10908 10916 10922 10928 10933 10939 10944 10949 10952 10956 10958 10962 10966 10969 10969 10968 10969 10970 10971 10974 10976 10976 10977 10978 10979 10979 10980 10981 10980 10981 10980
10785 10794 10803 10813 10823 10834 10839 10849 10857 10866 10876 10882 10889 10897 10904 10911 10917 10925 10931 10935 10941 10946 10949 10951 10954 10958 10960 10960 10963 10965 10967 10968 10970 10971 10970 10971 10972 10973 10973 10975 10975 10975 10975
10755 10764 10775 10787 10797 10806 10816 10825 10835 10843 10852 10861 10869 10878 10886 10892 10898 10907 10914 10922 10927 10932 10938 10943 10947 10949 10951 10952 10955 10957 10958 10960 10962 10963 10964 10963 10965 10966 10967 10967 10968 10968 10968
10724 10732 10744 10755 10766 10778 10788 10799 10810 10819 10828 10838 10847 10857 10865 10872 10878 10888 10896 10904 10910 10916 10922 10926 10933 10937 10940 10943 10947 10950 10952 10952 10953 10953 10954 10955 10958 10959 10959 10959 10961 10961 10960
10686 10696 10707 10719 10734 10746 10758 10771 10784 10793 10803 10813 10823 10833 10841 10849 10858 10866 10876 10884 10890 10900 10905 10911 10917 10922 10926 10927 10933 10937 10941 10943 10943 10942 10944 10945 10948 10950 10952 10952 10952 10953 10953
10645 10658 10668 10681 10697 10711 10725 10740 10751 10763 10774 10787 10795 10807 10815 10826 10834 10842 10854 10864 10873 10881 10887 10894 10899 10906 10910 10912 10918 10923 10928 10932 10933 10932 10932 10932 10935 10937 10939 10941 10941 10942 10942
10602 10614 10629 10645 10657 10673 10689 10704 10718 10731 10744 10756 10767 10778 10789 10802 10808 10817 10830 10841 10852 10860 10867 10876 10882 10889 10896 10902 10907 10909 10915 10918 10920 10920 10922 10923 10923 10924 10925 10926 10927 10929 10930
10558 10570 10584 10600 10618 10631 10644 10664 10679 10697 10712 10723 10735 10746 10762 10774 10782 10792 10805 10816 10827 10836 10845 10854 10863 10871 10879 10886 10891 10895 10898 10903 10906 10907 10908 10910 10911 10912 10911 10912 10911 10913 10914
10517 10527 10539 10555 10570 10589 10603 10617 10639 10658 10672 10688 10701 10713 10731 10742 10755 10766 10778 10791 10801 10812 10821 10831 10840 10851 10858 10864 10869 10873 10878 10882 10887 10890 10892 10894 10895 10896 10896 10897 10897 10898 10899
10483 10493 10504 10515 10528 10543 10560 10575 10590 10612 10633 10649 10666 10680 10692 10708 10724 10737 10750 10762 10773 10784 10796 10806 10816 10827 10833 10839 10846 10852 10857 10860 10864 10869 10870 10871 10874 10874 10875 10877 10880 10881 10882
10452 10461 10470 10481 10495 10507 10519 10533 10552 10569 10586 10604 10622 10639 10653 10673 10689 10705 10718 10733 10745 10755 10769 10780 10790 10800 10808 10816 10822 10829 10833 10837 10841 10845 10848 10850 10852 10853 10855 10859 10861 10863 10863
10425 10433 10442 10452 10463 10473 10484 10497 10510 10527 10542 10559 10577 10596 10614 10633 10653 10670 10687 10701 10715 10724 10738 10752 10763 10772 10783 10790 10798 10804 10808 10813 10817 10821 10824 10830 10832 10833 10836 10839 10839 10841 10842
10402 10410 10418 10427 10436 10445 10453 10462 10473 10484 10497 10515 10537 10558 10578 10599 10618 10635 10651 10666 10683 10695 10708 10723 10735 10746 10756 10765 10772 10778 10784 10789 10792 10798 10802 10806 10809 10811 10814 10817 10819 10820 10820